Terminal Aerodrome Forecast
Issued by NWS St Louis, MO

Home | Current Version | Previous Version | Graphics & Text | Print | Product List | Glossary Off
Versions: 1 2 3 4 5 6 7 8 9 10 11 12 13 14 15 16 17 18 19 20 21 22 23 24 25 26 27 28 29 30

000
FTUS43 KLSX 270500
TAFSTL
TAF
KSTL 270530Z 2706/2812 34012G18KT 5SM BR OVC007
      TEMPO 2706/2707 3SM -SN BR OVC003
     FM270800 32012KT P6SM OVC010
     FM271600 31010KT P6SM OVC025
     FM272100 31009KT P6SM SCT025 BKN250
     FM280300 VRB04KT P6SM BKN100=

USA.gov is the U.S. government's official web portal to all federal, state and local government web resources and services.